MMS 4

Last updated on Sun Jun 21 2026 00:02:59 GMT+0000 (Coordinated Universal Time)

1 40485U 15011D 26171.50003471 -.00000547 00000+0 00000+0 0 9991 2 40485 72.1513 348.7612 8320747 167.4717 276.5466 0.28305080 1392
UTC large
Height (km)
Speed (km/s)
/
Latitude / Longitude
Inclination (degrees)
Orbital Period (minutes)
Azimuth
Elevation
Range (km)
Doppler Factor

Next 0 passes for location: London (51.5072 / 0.1276)

No passes found over London.
MMS 4